Location: Unspecified
(0.0000°N, 0.0000°E)
Time: 16:30:49
(UTC+00:00)

deb Explorer IX - All Passes

Search period start: 30 May 2015 00:00
Search period end: 09 June 2015 00:00
Orbit: 548 x 1154 km, 38.8° (Epoch: 28 May)

Date Brightness Start Highest point End Pass type
(mag) Time Alt. Az. Time Alt. Az. Time Alt. Az.
30 May - 06:53:22 10° SSE 06:55:18 11° SSE 06:57:41 10° SE daylight
30 May - 08:36:52 10° SW 08:44:14 52° SE 08:51:05 10° ENE daylight
30 May - 10:25:43 10° WSW 10:32:17 34° NW 10:38:06 10° NNE daylight
30 May - 19:40:58 10° NNE 19:42:17 11° NE 19:43:48 10° ENE visible
30 May - 21:25:29 10° WNW 21:29:36 61° SW 21:34:12 10° SE night (unlit)
31 May - 06:38:11 10° S 06:41:18 13° SE 06:44:51 10° ESE daylight
31 May - 08:22:36 10° SW 08:30:06 60° SE 08:37:09 10° ENE daylight
31 May - 10:11:48 10° W 10:18:11 30° NW 10:23:53 10° NNE daylight
31 May - 19:26:14 10° N 19:28:21 14° NE 19:30:41 10° ENE visible
31 May - 21:11:40 10° WNW 21:15:40 47° SW 21:20:04 10° SE visible
01 Jun - 06:23:21 10° S 06:27:17 15° SE 06:31:36 10° ESE daylight
01 Jun - 08:08:21 10° SW 08:15:56 69° SE 08:23:09 10° ENE daylight
01 Jun - 09:57:56 10° W 10:04:04 26° NW 10:09:35 10° NNE daylight
01 Jun - 19:11:44 10° N 19:14:25 17° NE 19:17:15 10° E visible
01 Jun - 20:57:53 10° WNW 21:01:44 37° SW 21:05:52 10° SSE visible
02 Jun - 06:08:41 10° S 06:13:13 18° SE 06:18:09 10° ESE daylight
02 Jun - 07:54:07 10° SW 08:01:45 78° SE 08:09:06 10° NE daylight
02 Jun - 09:44:07 10° W 09:49:57 23° NW 09:55:13 10° N daylight
02 Jun - 18:57:21 10° N 19:00:28 21° NE 19:03:41 10° E visible
02 Jun - 20:44:09 10° WNW 20:47:46 30° SW 20:51:36 10° SSE visible
03 Jun - 05:54:06 10° S 05:59:07 20° SE 06:04:32 10° E daylight
03 Jun - 07:39:56 10° SW 07:47:32 88° SE 07:54:59 10° NE daylight
03 Jun - 09:30:21 10° W 09:35:49 21° NW 09:40:46 10° N daylight
03 Jun - 18:43:01 10° NNW 18:46:30 26° NE 18:49:59 10° E visible
03 Jun - 20:30:26 10° W 20:33:49 24° SW 20:37:16 10° SSE visible
04 Jun - 05:39:34 10° S 05:44:59 23° SE 05:50:48 10° E daylight
04 Jun - 07:25:44 10° SW 07:33:18 82° NW 07:40:48 10° NE daylight
04 Jun - 09:16:39 10° W 09:21:41 18° NW 09:26:14 10° N daylight
04 Jun - 18:28:44 10° NNW 18:32:30 32° NE 18:36:13 10° ESE visible
04 Jun - 20:16:47 10° W 20:19:50 19° SW 20:22:51 10° S visible
05 Jun - 05:25:06 10° SSW 05:30:48 26° SE 05:36:58 10° E visible
05 Jun - 07:11:34 10° SW 07:19:03 73° NW 07:26:34 10° NE daylight
05 Jun - 09:03:03 10° WNW 09:07:33 16° NW 09:11:34 10° N daylight
05 Jun - 18:14:29 10° NNW 18:18:30 41° NE 18:22:22 10° ESE visible
05 Jun - 20:03:14 10° WSW 20:05:50 16° SW 20:08:20 10° S visible
06 Jun - 05:10:40 10° SSW 05:16:36 29° SE 05:23:02 10° E visible
06 Jun - 06:57:26 10° WSW 07:04:48 64° NW 07:12:16 10° NE daylight
06 Jun - 08:49:35 10° WNW 08:53:25 14° NW 08:56:45 10° N daylight
06 Jun - 18:00:13 10° NW 18:04:27 52° NE 18:08:27 10° ESE daylight
06 Jun - 19:49:51 10° WSW 19:51:48 13° SW 19:53:36 10° SSW visible
07 Jun - 04:56:16 10° SSW 05:02:22 33° SE 05:09:03 10° ENE visible
07 Jun - 06:43:19 10° WSW 06:50:31 56° NW 06:57:55 10° NE daylight
07 Jun - 08:36:22 10° WNW 08:39:16 12° NW 08:41:41 10° NNW daylight
07 Jun - 17:46:00 10° NW 17:50:24 67° NE 17:54:29 10° ESE daylight
07 Jun - 19:37:07 10° SW 19:37:47 10° SW 19:38:14 10° SSW visible
08 Jun - 04:41:54 10° SSW 04:48:07 37° SE 04:54:58 10° ENE visible
08 Jun - 06:29:14 10° WSW 06:36:14 49° NW 06:43:30 10° NNE daylight
08 Jun - 08:23:58 10° NW 08:25:08 10° NNW 08:25:46 10° NNW daylight
08 Jun - 17:31:47 10° NW 17:36:19 84° NE 17:40:27 10° SE daylight
